ID TEMP HUMIDITY DATE
1 27 30 2022-08-28 16:04:20
2 27 27 2022-08-28 15:54:17
3 27 27 2022-08-28 15:44:17
4 27 27 2022-08-28 15:34:16
5 26 27 2022-08-28 15:24:15
6 26 27 2022-08-28 15:14:15
7 26 27 2022-08-28 15:04:14
8 27 26 2022-08-28 14:54:13
9 27 26 2022-08-28 14:44:12
10 27 26 2022-08-28 14:34:12
11 27 26 2022-08-28 14:24:11
12 27 25 2022-08-28 14:14:10
13 27 25 2022-08-28 14:04:09
14 27 26 2022-08-28 13:54:09
15 27 41 2022-08-28 13:44:07
16 26 38 2022-08-28 13:34:05
17 26 38 2022-08-28 13:24:05
18 26 37 2022-08-28 13:14:04
19 26 37 2022-08-28 13:04:03
20 26 36 2022-08-28 12:54:03
21 27 34 2022-08-28 12:44:02
22 27 29 2022-08-28 12:34:02
23 27 28 2022-08-28 12:24:01
24 27 28 2022-08-28 12:14:01
25 27 28 2022-08-28 12:04:01
26 26 29 2022-08-28 11:54:00
27 26 28 2022-08-28 11:44:00
28 26 28 2022-08-28 11:33:59
29 26 28 2022-08-28 11:23:59
30 26 28 2022-08-28 11:13:58
31 27 28 2022-08-28 11:03:58
32 27 28 2022-08-28 10:53:57
33 26 28 2022-08-28 10:43:56
34 26 28 2022-08-28 10:33:56
35 26 27 2022-08-28 10:23:55
36 26 27 2022-08-28 10:13:55
37 26 27 2022-08-28 10:03:54
38 26 26 2022-08-28 09:53:53
39 26 26 2022-08-28 09:43:53
40 26 26 2022-08-28 09:33:51
41 26 29 2022-08-28 09:23:51
42 26 41 2022-08-28 09:13:50
43 26 26 2022-08-28 09:03:49
44 26 30 2022-08-28 08:53:48
45 26 27 2022-08-28 08:43:48
46 26 31 2022-08-28 08:33:47
47 26 29 2022-08-28 08:23:45
48 26 32 2022-08-28 08:13:44
49 26 32 2022-08-28 08:03:44
50 26 32 2022-08-28 07:53:43
51 26 30 2022-08-28 07:43:42
52 26 38 2022-08-28 07:33:42
53 26 32 2022-08-28 07:23:41
54 26 32 2022-08-28 07:13:40
55 26 32 2022-08-28 07:03:40
56 25 31 2022-08-28 06:53:39
57 26 33 2022-08-28 06:43:38
58 25 30 2022-08-28 06:33:38
59 25 32 2022-08-28 06:23:37
60 25 32 2022-08-28 06:13:36
61 25 32 2022-08-28 06:03:36
62 25 31 2022-08-28 05:53:35
63 25 38 2022-08-28 05:43:34
64 25 37 2022-08-28 05:33:33
65 24 33 2022-08-28 05:23:32
66 25 44 2022-08-28 05:13:31
67 25 33 2022-08-28 05:03:30
68 25 46 2022-08-28 04:53:29
69 25 33 2022-08-28 04:43:29
70 26 41 2022-08-28 04:33:28
71 26 31 2022-08-28 04:23:27
72 26 31 2022-08-28 04:13:27
73 26 31 2022-08-28 04:03:26
74 26 29 2022-08-28 03:53:25
75 26 36 2022-08-28 03:43:25
76 26 31 2022-08-28 03:33:24
77 26 31 2022-08-28 03:23:23
78 26 32 2022-08-28 03:13:23
79 26 27 2022-08-28 02:58:16
80 26 40 2022-08-28 02:48:15
81 26 31 2022-08-28 02:38:14
82 26 31 2022-08-28 02:28:13
83 26 31 2022-08-28 02:18:12
84 26 28 2022-08-28 02:08:12
85 26 38 2022-08-28 01:58:11
86 26 27 2022-08-28 01:48:10
87 26 31 2022-08-28 01:38:08
88 26 31 2022-08-28 01:28:08
89 26 31 2022-08-28 01:18:07
90 26 28 2022-08-28 01:08:06
91 26 31 2022-08-28 00:58:06
92 26 31 2022-08-28 00:48:05
93 26 31 2022-08-28 00:38:04
94 26 26 2022-08-28 00:28:04
95 26 38 2022-08-28 00:18:03
96 26 29 2022-08-28 00:08:02
97 26 31 2022-08-27 23:58:02
98 26 27 2022-08-27 23:48:01
99 26 31 2022-08-27 23:38:00
100 26 29 2022-08-27 23:27:59
1   2   3   4   5       Next